Buston

Tajikistan     40˚13′59″N   69˚41′51″E
temp.,
°C
wind,
m/s
gust,
m/s
humid.,
%
clouds,
%
prec.,
mm/h
press.,
hPa
HPBL,
m
29 november, sun
sun2923:00wsw127431 0.0 104232
02:00e11750 0.0 104121
05:00e22761 0.0 104032
08:00+1˚e498546 0.0 1039398
11:00+4˚e7106740 0.0 1037699
14:00+6˚e57550 0.0 1035827
17:00+4˚ene34620 0.0 1035105
20:00+2˚ese236765 0.0 103595
30 november, mon
mon3023:00+2˚ese377282 0.0 1035189
02:00+2˚e4972100 0.0 1034300
05:00+1˚e5107351 0.0 1033338
08:00+1˚e6126744 0.0 1032488
11:00+5˚e9135470 0.0 1030691
14:00+7˚ene81238100 0.0 1028741
17:00+5˚ene61239100 0.0 1027548
20:00+4˚e61243100 0.0 1027493
1 december, tue
tue123:00+3˚e51049100 0.0 1027314
02:00+3˚e4951100 0.0 1026263
05:00+3˚e595298 0.0 1025308
08:00+3˚e2556100 0.0 1026188
11:00+6˚e344899 0.1 1027341
14:00+8˚e684488 0.0 1026413
17:00+7˚e8134177 0.0 1027511
20:00+5˚ene9154812 0.0 1029505
2 december, wed
wed223:00+5˚e915498 0.0 1028484
02:00+5˚e8144764 0.0 1028413
05:00+5˚e7134582 0.0 1028360
08:00+5˚e8144782 0.0 1028386
11:00+8˚e9134191 0.0 1027488
14:00+10˚e71035100 0.0 1026522
17:00+9˚e4837100 0.0 1025272
20:00+7˚e594393 0.0 1026201
3 december, thu
thu323:00+7˚e7124597 0.0 1025316
02:00+6˚e71255100 0.0 1024344
05:00+6˚e71363100 0.0 1024377
08:00+6˚e61267100 0.0 1024391
11:00+9˚e71155100 0.0 1023510
14:00+10˚e5848100 0.0 1021468
17:00+9˚w1153100 0.0 102126
20:00+9˚w3363100 0.0 102197